Weather History for Mombasa, Kenya

Change the Weather History Date:

Friday, November 16, 2012

  Actual Average Record
Temperature  
Mean Temperature 82 °F -  
Max Temperature 87 °F 90 °F 90 °F (2013)
Min Temperature 77 °F 72 °F 72 °F (2013)
Cooling Degree Days 17    
Growing Degree Days 32 (Base 50)    
Moisture  
Dew Point 75 °F    
Average Humidity 80    
Maximum Humidity 94    
Minimum Humidity 54    
Precipitation  
Precipitation 0.00 in 0.12 in - ()
Sea Level Pressure  
Sea Level Pressure 29.89 in    
Wind  
Wind Speed 5 mph ()    
Max Wind Speed 14 mph    
Max Gust Speed -    
Visibility 8.8 miles    
Events Rain    
Averages and records for this station are not official NWS values.
T = Trace of Precipitation, MM = Missing Value Source: Averaged Metar Reports

Daily Weather History Graph

Daily Weather History Graph

Search for Another Location

Airport:

Trip Planner

Search our weather history database for the weather conditions in past years. The results will help you decide how hot, cold, wet, or windy it might be!

Date:

Astronomy

Nov. 16, 2012 Rise Set
Actual Time 5:57 AM EAT 6:15 PM EAT
Civil Twilight 5:35 AM EAT 6:37 PM EAT
Nautical Twilight 5:09 AM EAT 7:03 PM EAT
Astronomical Twilight 4:44 AM EAT 7:28 PM EAT
Moon 8:18 AM EAT (11/16) 9:00 PM EAT (11/16)
Length of Visible Light 13h 02m
Length of Day
12h 18m
Waxing Crescent, 9% of the Moon is Illuminated
Nov 16
Waxing Crescent
Nov 20
First Quarter
Nov 28
Full
Dec 6
Last Quarter
Dec 13
New

Hourly Weather History & Observations

Time (EAT) Temp. Heat Index Dew Point Humidity Pressure Visibility Wind Dir Wind Speed Gust Speed Precip Events Conditions
1:00 AM 78.8 °F - 77.0 °F 94% 29.86 in 6.2 mi South 3.5 mph - N/A   Scattered Clouds
2:00 AM 78.8 °F - 77.0 °F 94% 29.86 in 6.2 mi SSW 3.5 mph - N/A   Partly Cloudy
3:00 AM 79 °F - 76 °F 88% 29.86 in 19 mi South 3.5 mph - -   Partly Cloudy
3:00 AM 78.8 °F - 77.0 °F 94% 29.86 in 6.2 mi South 3.5 mph - N/A   Scattered Clouds
4:00 AM 78.8 °F - 77.0 °F 94% 29.86 in 6.2 mi SSW 5.8 mph - N/A   Scattered Clouds
7:00 AM 77.0 °F - 75.2 °F 94% 29.89 in 6.2 mi SSW 6.9 mph - N/A Rain Light Rain Showers
8:00 AM 80.6 °F 86.2 °F 75.2 °F 84% 29.92 in 6.2 mi WSW 6.9 mph - N/A   Partly Cloudy
9:00 AM 82 °F - 76 °F 77% 29.94 in 19 mi WSW 6.9 mph - -   Mostly Cloudy
9:30 AM 82.4 °F 89.5 °F 75.2 °F 79% 29.95 in 6.2 mi SSW 3.5 mph - N/A   Mostly Cloudy
10:30 AM 86.0 °F 93.4 °F 73.4 °F 66% 29.95 in 6.2 mi South 13.8 mph - N/A   Scattered Clouds
11:30 AM 87.8 °F 95.6 °F 73.4 °F 62% 29.92 in 6.2 mi South 6.9 mph - N/A   Partly Cloudy
12:30 PM 87.8 °F 93.8 °F 71.6 °F 58% 29.89 in 6.2 mi South 5.8 mph - N/A   Partly Cloudy
2:30 PM 87.8 °F 92.6 °F 69.8 °F 55% 29.83 in 6.2 mi SSE 8.1 mph - N/A   Partly Cloudy
3:00 PM 87 °F - 73 °F 54% 29.84 in 19 mi SSE 8.1 mph - -   Scattered Clouds
7:00 PM 80.6 °F 86.2 °F 75.2 °F 84% 29.86 in 6.2 mi South 3.5 mph - N/A   Partly Cloudy
8:30 PM 80.6 °F 86.2 °F 75.2 °F 84% 29.89 in 6.2 mi South 4.6 mph - N/A   Partly Cloudy
9:00 PM 80 °F - 76 °F 83% 29.91 in 19 mi South 6.9 mph - -   Scattered Clouds
9:30 PM 80.6 °F 86.2 °F 75.2 °F 84% 29.92 in 6.2 mi South 8.1 mph - N/A   Partly Cloudy
10:30 PM 80.6 °F 86.2 °F 75.2 °F 84% 29.92 in 6.2 mi South 9.2 mph - N/A   Partly Cloudy
11:30 PM 78.8 °F - 75.2 °F 89% 29.92 in 6.2 mi SSW 5.8 mph - N/A   Scattered Clouds